Location: Newark
(55.4390°N, 25.0170°E)
Time: 17:45:55
(UTC+00:00)

Envisat - Pass Details

Date: 10 March 2021
Orbit: 764 x 766 km, 98.1° (Epoch: 17 April)

Event Time Altitude Azimuth Distance (km) Brightness Sun altitude
Rises 03:54:57 0° 17° (NNE) 3,248 6.6 -8.3°
Reaches altitude 10° 03:57:19 10° 21° (NNE) 2,317 5.9 -8.0°
Maximum altitude 04:02:21 59° 101° (E) 886 3.8 -7.3°
Drops below altitude 10° 04:07:22 10° 181° (S) 2,299 5.5 -6.6°
Sets 04:09:41 0° 185° (S) 3,221 6.2 -6.2°
